Flint, MI

6:29 AM EDT on October 18, 2017 (GMT -0400)
Bishop International

Weather History for KFNT - December, 2012

Change the Weather History Date:

Friday, December 14, 2012

  Actual Average Record
Temperature  
Mean Temperature 37 °F 28 °F  
Max Temperature 47 °F 34 °F 63 °F (1975)
Min Temperature 26 °F 21 °F 0 °F (1944)
Degree Days  
Heating Degree Days 28 37  
Month to date heating degree days 374 489  
Since 1 July heating degree days 1765 1970  
Moisture  
Dew Point 26 °F    
Average Humidity 67    
Maximum Humidity 85    
Minimum Humidity 49    
Precipitation  
Precipitation 0.00 in 0.06 in 1.31 in (1975)
Month to date precipitation 1.04 0.93  
Year to date precipitation 29.31 30.38  
Snow  
Snow 0.00 in 0.40 in 7.10 in (1951)
Month to date snowfall 0.4 4.8  
Since 1 July snowfall 2.6 7.7  
Snow Depth 0.00 in    
Sea Level Pressure  
Sea Level Pressure 30.22 in    
Wind  
Wind Speed 5 mph (South)    
Max Wind Speed 12 mph    
Max Gust Speed 14 mph    
Visibility 10 miles    
Events      
T = Trace of Precipitation, MM = Missing Value Source: NWS Daily Summary

Daily Weather History Graph

Daily Weather History Graph

Search for Another Location

Airport or City:

Trip Planner

Search our weather history database for the weather conditions in past years. The results will help you decide how hot, cold, wet, or windy it might be!

Date:

Astronomy

Dec. 14, 2012 Rise Set
Actual Time 7:58 AM EST 5:00 PM EST
Civil Twilight 7:26 AM EST 5:33 PM EST
Nautical Twilight 6:50 AM EST 6:09 PM EST
Astronomical Twilight 6:16 AM EST 6:43 PM EST
Moon 9:01 AM EST (12/14) 6:54 PM EST (12/14)
Length of Visible Light 10h 06m
Length of Day
9h 02m
Waxing Crescent, 3% of the Moon is Illuminated
Dec 14
Waxing Crescent
Dec 20
First Quarter
Dec 28
Full
Jan 4
Last Quarter
Jan 11
New

Hourly Weather History & Observations

Time (EST) Temp. Windchill Dew Point Humidity Pressure Visibility Wind Dir Wind Speed Gust Speed Precip Events Conditions
12:53 AM 35.6 °F 28.6 °F 24.8 °F 65% 30.15 in 10.0 mi SW 9.2 mph - N/A   Clear
1:53 AM 35.1 °F 28.6 °F 24.1 °F 64% 30.18 in 10.0 mi SW 8.1 mph - N/A   Clear
2:53 AM 34.0 °F 28.0 °F 24.1 °F 67% 30.18 in 10.0 mi SW 6.9 mph - N/A   Clear
3:53 AM 34.0 °F 28.8 °F 24.1 °F 67% 30.19 in 10.0 mi SW 5.8 mph - N/A   Clear
4:53 AM 34.0 °F 28.8 °F 24.1 °F 67% 30.19 in 10.0 mi SW 5.8 mph - N/A   Clear
5:53 AM 33.1 °F 27.7 °F 24.1 °F 70% 30.20 in 10.0 mi WSW 5.8 mph - N/A   Clear
6:53 AM 32.0 °F 27.5 °F 24.1 °F 73% 30.21 in 10.0 mi WSW 4.6 mph - N/A   Clear
7:53 AM 30.0 °F 26.5 °F 23.0 °F 75% 30.22 in 10.0 mi SW 3.5 mph - N/A   Clear
8:53 AM 30.0 °F 26.5 °F 24.1 °F 79% 30.23 in 10.0 mi SW 3.5 mph - N/A   Clear
9:53 AM 36.0 °F 32.1 °F 27.0 °F 70% 30.25 in 10.0 mi WSW 4.6 mph - N/A   Clear
10:53 AM 39.0 °F 35.7 °F 28.0 °F 65% 30.27 in 10.0 mi SW 4.6 mph - N/A   Clear
11:53 AM 42.1 °F - 30.0 °F 62% 30.26 in 9.0 mi Calm Calm - N/A   Clear
12:53 PM 44.1 °F 42.5 °F 30.9 °F 60% 30.25 in 10.0 mi WSW 3.5 mph - N/A   Clear
1:53 PM 46.0 °F - 30.0 °F 54% 30.23 in 10.0 mi Calm Calm - N/A   Clear
2:53 PM 46.0 °F - 28.9 °F 51% 30.21 in 10.0 mi Calm Calm - N/A   Clear
3:53 PM 46.0 °F - 28.0 °F 50% 30.21 in 10.0 mi Calm Calm - N/A   Clear
4:53 PM 42.1 °F 38.4 °F 28.0 °F 58% 30.21 in 10.0 mi ENE 5.8 mph - N/A   Clear
5:53 PM 37.9 °F 33.5 °F 27.0 °F 65% 30.21 in 9.0 mi ENE 5.8 mph - N/A   Clear
6:53 PM 37.0 °F 34.5 °F 27.0 °F 67% 30.22 in 10.0 mi East 3.5 mph - N/A   Clear
7:53 PM 33.1 °F 26.1 °F 26.1 °F 75% 30.24 in 9.0 mi East 8.1 mph - N/A   Clear
8:53 PM 34.0 °F 28.0 °F 27.0 °F 75% 30.25 in 9.0 mi East 6.9 mph - N/A   Clear
9:53 PM 33.1 °F 27.7 °F 27.0 °F 78% 30.24 in 8.0 mi ESE 5.8 mph - N/A   Clear
10:53 PM 30.9 °F 25.2 °F 27.0 °F 85% 30.22 in 6.0 mi East 5.8 mph - N/A   Clear
11:53 PM 30.9 °F 25.2 °F 27.0 °F 85% 30.20 in 5.0 mi ENE 5.8 mph - N/A   Clear